Time,TemperatureF,DewpointF,PressureIn,WindDirection,WindDirectionDegrees,WindSpeedMPH,WindSpeedGustMPH,Humidity,HourlyPrecipIn,Conditions,Clouds,dailyrainin,SoftwareType,DateUTC
2013-06-10 00:03:00,70.0,63.0,30.16,South,175,3.0,6.0,78,0.00,,,0.00,,2013-06-10 04:03:00,
2013-06-10 00:13:00,70.0,63.0,30.16,South,175,3.0,6.0,78,0.00,,,0.00,,2013-06-10 04:13:00,
2013-06-10 00:23:00,69.0,63.0,30.16,ESE,111,2.0,3.0,80,0.00,,,0.00,,2013-06-10 04:23:00,
2013-06-10 00:33:00,70.0,63.0,30.16,South,174,1.0,3.0,79,0.00,,,0.00,,2013-06-10 04:33:00,
2013-06-10 00:42:00,70.0,63.0,30.16,South,174,1.0,3.0,79,0.00,,,0.00,,2013-06-10 04:42:00,
2013-06-10 00:53:00,70.0,63.0,30.14,SSE,160,1.0,3.0,79,0.00,,,0.00,,2013-06-10 04:53:00,
2013-06-10 01:02:00,70.0,63.0,30.14,SW,214,1.0,2.0,79,0.00,,,0.00,,2013-06-10 05:02:00,
2013-06-10 01:12:00,70.0,63.0,30.14,SW,214,1.0,2.0,79,0.00,,,0.00,,2013-06-10 05:12:00,
2013-06-10 01:22:00,70.0,63.0,30.14,SSW,204,1.0,2.0,79,0.00,,,0.00,,2013-06-10 05:22:00,
2013-06-10 01:32:00,70.0,64.0,30.14,SSW,195,2.0,3.0,80,0.00,,,0.00,,2013-06-10 05:32:00,
2013-06-10 01:42:00,70.0,64.0,30.14,SSW,195,2.0,3.0,80,0.00,,,0.00,,2013-06-10 05:42:00,
2013-06-10 01:52:00,70.0,64.0,30.14,SE,124,0.0,3.0,80,0.00,,,0.00,,2013-06-10 05:52:00,
2013-06-10 02:02:00,69.0,63.0,30.14,ESE,105,2.0,3.0,81,0.00,,,0.00,,2013-06-10 06:02:00,
2013-06-10 02:12:00,69.0,63.0,30.14,ESE,105,2.0,3.0,81,0.00,,,0.00,,2013-06-10 06:12:00,
2013-06-10 02:22:00,69.0,63.0,30.14,SSE,156,1.0,3.0,82,0.00,,,0.00,,2013-06-10 06:22:00,
2013-06-10 02:32:00,69.0,63.0,30.14,SSE,151,2.0,3.0,82,0.00,,,0.00,,2013-06-10 06:32:00,
2013-06-10 02:42:00,69.0,63.0,30.14,SSE,151,2.0,3.0,82,0.00,,,0.00,,2013-06-10 06:42:00,
2013-06-10 02:53:00,69.0,64.0,30.14,East,99,1.0,3.0,83,0.00,,,0.00,,2013-06-10 06:53:00,
2013-06-10 03:02:00,68.0,63.0,30.14,SSE,159,2.0,3.0,84,0.00,,,0.00,,2013-06-10 07:02:00,
2013-06-10 03:12:00,68.0,63.0,30.14,SSE,159,2.0,3.0,84,0.00,,,0.00,,2013-06-10 07:12:00,
2013-06-10 03:22:00,68.0,63.0,30.14,SE,142,1.0,2.0,84,0.00,,,0.00,,2013-06-10 07:22:00,
2013-06-10 03:32:00,68.0,63.0,30.14,ESE,112,0.0,1.0,84,0.00,,,0.00,,2013-06-10 07:32:00,
2013-06-10 03:42:00,68.0,63.0,30.14,ESE,112,0.0,1.0,84,0.00,,,0.00,,2013-06-10 07:42:00,
2013-06-10 03:52:00,69.0,64.0,30.14,South,182,1.0,3.0,85,0.00,,,0.00,,2013-06-10 07:52:00,
2013-06-10 04:02:00,69.0,64.0,30.14,South,169,3.0,3.0,85,0.00,,,0.00,,2013-06-10 08:02:00,
2013-06-10 04:12:00,69.0,64.0,30.14,South,169,3.0,3.0,85,0.00,,,0.00,,2013-06-10 08:12:00,
2013-06-10 04:22:00,68.0,63.0,30.14,SSE,150,2.0,3.0,84,0.00,,,0.00,,2013-06-10 08:22:00,
2013-06-10 04:32:00,68.0,63.0,30.14,ENE,72,3.0,3.0,85,0.00,,,0.00,,2013-06-10 08:32:00,
2013-06-10 04:42:00,68.0,63.0,30.14,ENE,72,3.0,3.0,85,0.00,,,0.00,,2013-06-10 08:42:00,
2013-06-10 04:52:00,67.0,63.0,30.14,East,80,3.0,3.0,87,0.00,,,0.00,,2013-06-10 08:52:00,
2013-06-10 05:02:00,67.0,63.0,30.14,ENE,69,2.0,3.0,87,0.00,,,0.00,,2013-06-10 09:02:00,
2013-06-10 05:12:00,67.0,63.0,30.14,ENE,69,2.0,3.0,87,0.00,,,0.00,,2013-06-10 09:12:00,
2013-06-10 05:22:00,67.0,63.0,30.14,ENE,65,5.0,6.0,87,0.00,,,0.00,,2013-06-10 09:22:00,
2013-06-10 05:32:00,67.0,63.0,30.14,East,87,3.0,5.0,88,0.00,,,0.00,,2013-06-10 09:32:00,
2013-06-10 05:42:00,67.0,63.0,30.14,East,87,3.0,5.0,88,0.00,,,0.00,,2013-06-10 09:42:00,
2013-06-10 05:53:00,66.0,62.0,30.14,ENE,65,2.0,5.0,88,0.00,,,0.00,,2013-06-10 09:53:00,
2013-06-10 06:03:00,66.0,62.0,30.14,NE,53,3.0,5.0,88,0.00,,,0.00,,2013-06-10 10:03:00,
2013-06-10 06:13:00,66.0,62.0,30.14,NE,53,3.0,5.0,88,0.00,,,0.00,,2013-06-10 10:13:00,
2013-06-10 06:23:00,66.0,63.0,30.14,NE,43,5.0,8.0,89,0.00,,,0.00,,2013-06-10 10:23:00,
2013-06-10 06:33:00,65.0,62.0,30.14,NE,45,6.0,8.0,90,0.00,,,0.00,,2013-06-10 10:33:00,
2013-06-10 06:42:00,65.0,62.0,30.14,NE,45,6.0,8.0,90,0.00,,,0.00,,2013-06-10 10:42:00,
2013-06-10 06:52:00,65.0,62.0,30.14,ENE,77,4.0,7.0,91,0.00,,,0.00,,2013-06-10 10:52:00,
2013-06-10 07:03:00,65.0,62.0,30.14,ENE,76,5.0,6.0,91,0.00,,,0.00,,2013-06-10 11:03:00,
2013-06-10 07:12:00,65.0,62.0,30.14,ENE,76,5.0,6.0,91,0.00,,,0.00,,2013-06-10 11:12:00,
2013-06-10 07:22:00,66.0,63.0,30.14,NE,46,1.0,3.0,90,0.00,,,0.00,,2013-06-10 11:22:00,
2013-06-10 07:32:00,66.0,63.0,30.14,ENE,58,2.0,3.0,90,0.00,,,0.00,,2013-06-10 11:32:00,
2013-06-10 07:42:00,66.0,63.0,30.14,ENE,58,2.0,3.0,90,0.00,,,0.00,,2013-06-10 11:42:00,
2013-06-10 07:52:00,66.0,63.0,30.14,ENE,77,1.0,5.0,89,0.00,,,0.00,,2013-06-10 11:52:00,
2013-06-10 08:02:00,67.0,63.0,30.12,ENE,57,3.0,6.0,88,0.00,,,0.00,,2013-06-10 12:02:00,
2013-06-10 08:12:00,67.0,63.0,30.12,ENE,57,3.0,6.0,88,0.00,,,0.00,,2013-06-10 12:12:00,
2013-06-10 08:22:00,68.0,64.0,30.12,NE,50,3.0,7.0,87,0.00,,,0.00,,2013-06-10 12:22:00,
2013-06-10 08:32:00,68.0,64.0,30.12,NE,46,2.0,6.0,87,0.00,,,0.00,,2013-06-10 12:32:00,
2013-06-10 08:42:00,68.0,64.0,30.12,NE,46,2.0,6.0,87,0.00,,,0.00,,2013-06-10 12:42:00,
2013-06-10 08:52:00,69.0,64.0,30.12,ESE,102,3.0,6.0,85,0.00,,,0.00,,2013-06-10 12:52:00,
2013-06-10 09:02:00,69.0,64.0,30.12,SE,135,3.0,6.0,84,0.00,,,0.00,,2013-06-10 13:02:00,
2013-06-10 09:12:00,69.0,64.0,30.12,SE,135,3.0,6.0,84,0.00,,,0.00,,2013-06-10 13:12:00,
2013-06-10 09:22:00,69.0,64.0,30.12,SE,139,4.0,8.0,83,0.00,,,0.00,,2013-06-10 13:22:00,
2013-06-10 09:32:00,69.0,64.0,30.12,NE,44,3.0,6.0,85,0.00,,,0.00,,2013-06-10 13:32:00,
2013-06-10 09:42:00,69.0,64.0,30.12,NE,44,3.0,6.0,85,0.00,,,0.00,,2013-06-10 13:42:00,
2013-06-10 09:52:00,68.0,64.0,30.12,NE,54,3.0,7.0,88,0.00,,,0.00,,2013-06-10 13:52:00,
2013-06-10 10:02:00,68.0,65.0,30.12,NE,55,3.0,10.0,89,0.00,,,0.00,,2013-06-10 14:02:00,
2013-06-10 10:12:00,68.0,65.0,30.12,NE,55,3.0,10.0,89,0.00,,,0.00,,2013-06-10 14:12:00,
2013-06-10 10:22:00,68.0,65.0,30.12,ENE,67,3.0,10.0,90,0.00,,,0.00,,2013-06-10 14:22:00,
2013-06-10 10:32:00,69.0,65.0,30.12,East,93,4.0,12.0,87,0.00,,,0.00,,2013-06-10 14:32:00,
2013-06-10 10:42:00,69.0,65.0,30.12,East,93,4.0,12.0,87,0.00,,,0.00,,2013-06-10 14:42:00,
2013-06-10 10:52:00,70.0,64.0,30.12,ESE,117,6.0,12.0,82,0.00,,,0.00,,2013-06-10 14:52:00,
2013-06-10 11:02:00,70.0,65.0,30.12,ESE,120,5.0,12.0,84,0.00,,,0.00,,2013-06-10 15:02:00,
2013-06-10 11:12:00,70.0,65.0,30.12,ESE,120,5.0,12.0,84,0.00,,,0.00,,2013-06-10 15:12:00,
2013-06-10 11:22:00,69.0,65.0,30.12,ESE,121,5.0,6.0,86,0.04,,,0.04,,2013-06-10 15:22:00,
2013-06-10 11:33:00,69.0,65.0,30.12,South,186,2.0,6.0,87,0.05,,,0.05,,2013-06-10 15:33:00,
2013-06-10 11:43:00,69.0,65.0,30.12,South,186,2.0,6.0,87,0.05,,,0.05,,2013-06-10 15:43:00,
2013-06-10 11:53:00,68.0,65.0,30.12,South,174,5.0,8.0,89,0.12,,,0.12,,2013-06-10 15:53:00,
2013-06-10 12:03:00,68.0,65.0,30.12,SSE,162,4.0,8.0,90,0.14,,,0.14,,2013-06-10 16:03:00,
2013-06-10 12:13:00,68.0,65.0,30.12,SSE,162,4.0,8.0,90,0.14,,,0.14,,2013-06-10 16:13:00,
2013-06-10 12:23:00,67.0,64.0,30.12,SSE,155,9.0,12.0,91,0.21,,,0.25,,2013-06-10 16:23:00,
2013-06-10 12:33:00,67.0,64.0,30.12,ESE,121,8.0,14.0,91,0.22,,,0.27,,2013-06-10 16:33:00,
2013-06-10 12:43:00,67.0,64.0,30.12,ESE,121,8.0,14.0,91,0.22,,,0.27,,2013-06-10 16:43:00,
2013-06-10 12:53:00,66.0,63.0,30.12,East,97,10.0,18.0,91,0.22,,,0.34,,2013-06-10 16:53:00,
2013-06-10 13:03:00,66.0,64.0,30.12,SE,145,9.0,18.0,92,0.26,,,0.40,,2013-06-10 17:03:00,
2013-06-10 13:14:00,66.0,64.0,30.12,SE,145,9.0,18.0,92,0.26,,,0.40,,2013-06-10 17:14:00,
2013-06-10 13:27:00,65.0,63.0,30.12,SE,132,9.0,22.0,92,0.16,,,0.41,,2013-06-10 17:27:00,
2013-06-10 13:38:00,65.0,63.0,30.12,ESE,120,13.0,22.0,92,0.14,,,0.41,,2013-06-10 17:38:00,
2013-06-10 13:48:00,65.0,63.0,30.12,SE,140,12.0,26.0,92,0.07,,,0.41,,2013-06-10 17:48:00,
2013-06-10 13:58:00,65.0,63.0,30.12,SE,140,12.0,26.0,92,0.07,,,0.41,,2013-06-10 17:58:00,
2013-06-10 14:07:00,65.0,62.0,30.12,ESE,111,12.0,23.0,91,0.01,,,0.41,,2013-06-10 18:07:00,
2013-06-10 14:14:00,65.0,62.0,30.12,ESE,111,12.0,23.0,91,0.01,,,0.41,,2013-06-10 18:14:00,
2013-06-10 14:25:00,65.0,63.0,30.12,SE,138,14.0,22.0,92,0.00,,,0.41,,2013-06-10 18:25:00,
2013-06-10 14:35:00,65.0,63.0,30.12,SE,128,12.0,23.0,92,0.00,,,0.41,,2013-06-10 18:35:00,
2013-06-10 14:48:00,65.0,63.0,30.12,SE,128,12.0,23.0,92,0.00,,,0.41,,2013-06-10 18:48:00,
2013-06-10 14:55:00,65.0,62.0,30.12,ESE,114,10.0,20.0,91,0.00,,,0.41,,2013-06-10 18:55:00,
2013-06-10 15:03:00,65.0,62.0,30.12,SE,131,11.0,28.0,90,0.00,,,0.41,,2013-06-10 19:03:00,
2013-06-10 15:13:00,65.0,62.0,30.12,SE,131,11.0,28.0,90,0.00,,,0.41,,2013-06-10 19:13:00,
2013-06-10 15:22:00,65.0,62.0,30.12,ESE,118,11.0,25.0,91,0.00,,,0.41,,2013-06-10 19:22:00,
2013-06-10 15:33:00,65.0,63.0,30.12,SE,137,6.0,22.0,92,0.00,,,0.41,,2013-06-10 19:33:00,
2013-06-10 15:43:00,65.0,63.0,30.12,SE,137,6.0,22.0,92,0.00,,,0.41,,2013-06-10 19:43:00,
2013-06-10 15:53:00,65.0,62.0,30.12,ESE,123,11.0,22.0,91,0.00,,,0.41,,2013-06-10 19:53:00,
2013-06-10 16:03:00,65.0,63.0,30.12,ESE,108,6.0,22.0,92,0.00,,,0.41,,2013-06-10 20:03:00,
2013-06-10 16:13:00,65.0,63.0,30.12,ESE,108,6.0,22.0,92,0.00,,,0.41,,2013-06-10 20:13:00,
2013-06-10 16:23:00,64.0,62.0,30.12,ESE,112,12.0,24.0,93,0.00,,,0.41,,2013-06-10 20:23:00,
2013-06-10 16:32:00,64.0,62.0,30.12,SE,134,12.0,18.0,93,0.00,,,0.41,,2013-06-10 20:32:00,
2013-06-10 16:43:00,64.0,62.0,30.12,SE,134,12.0,18.0,93,0.00,,,0.41,,2013-06-10 20:43:00,
2013-06-10 16:53:00,64.0,62.0,30.12,ESE,114,10.0,20.0,94,0.00,,,0.41,,2013-06-10 20:53:00,
2013-06-10 17:02:00,64.0,62.0,30.12,ESE,107,10.0,20.0,94,0.00,,,0.41,,2013-06-10 21:02:00,
2013-06-10 17:12:00,64.0,62.0,30.12,ESE,107,10.0,20.0,94,0.00,,,0.41,,2013-06-10 21:12:00,
2013-06-10 17:23:00,64.0,62.0,30.12,East,101,10.0,18.0,94,0.00,,,0.41,,2013-06-10 21:23:00,
2013-06-10 17:33:00,64.0,62.0,30.12,ESE,122,12.0,20.0,94,0.00,,,0.41,,2013-06-10 21:33:00,
2013-06-10 17:43:00,64.0,62.0,30.12,ESE,122,12.0,20.0,94,0.00,,,0.41,,2013-06-10 21:43:00,
2013-06-10 17:53:00,64.0,62.0,30.12,East,94,9.0,18.0,94,0.00,,,0.41,,2013-06-10 21:53:00,
2013-06-10 18:03:00,64.0,63.0,30.12,SE,129,6.0,16.0,95,0.00,,,0.41,,2013-06-10 22:03:00,
2013-06-10 18:13:00,64.0,63.0,30.12,SE,129,6.0,16.0,95,0.00,,,0.41,,2013-06-10 22:13:00,
2013-06-10 18:23:00,64.0,63.0,30.12,ESE,103,10.0,17.0,95,0.00,,,0.41,,2013-06-10 22:23:00,
2013-06-10 18:33:00,64.0,63.0,30.12,SE,128,9.0,18.0,95,0.00,,,0.41,,2013-06-10 22:33:00,
2013-06-10 18:42:00,64.0,63.0,30.12,SE,128,9.0,18.0,95,0.00,,,0.41,,2013-06-10 22:42:00,
2013-06-10 18:52:00,64.0,63.0,30.12,ESE,115,6.0,13.0,95,0.00,,,0.41,,2013-06-10 22:52:00,
2013-06-10 19:03:00,64.0,63.0,30.12,ESE,106,7.0,16.0,96,0.00,,,0.41,,2013-06-10 23:03:00,
2013-06-10 19:12:00,64.0,63.0,30.12,ESE,106,7.0,16.0,96,0.00,,,0.41,,2013-06-10 23:12:00,
2013-06-10 19:22:00,64.0,63.0,30.12,SE,127,7.0,12.0,96,0.00,,,0.41,,2013-06-10 23:22:00,
2013-06-10 19:32:00,64.0,63.0,30.12,ESE,104,4.0,10.0,96,0.00,,,0.41,,2013-06-10 23:32:00,
2013-06-10 19:42:00,64.0,63.0,30.12,ESE,104,4.0,10.0,96,0.00,,,0.41,,2013-06-10 23:42:00,
2013-06-10 19:52:00,64.0,63.0,30.12,East,92,6.0,10.0,96,0.00,,,0.41,,2013-06-10 23:52:00,
2013-06-10 20:02:00,64.0,63.0,29.92,ESE,105,6.0,10.0,96,0.00,,,0.41,,2013-06-11 00:02:00,
2013-06-10 20:13:00,64.0,63.0,29.92,ENE,70,8.0,12.0,96,0.00,,,0.41,,2013-06-11 00:13:00,
2013-06-10 20:22:00,64.0,63.0,29.92,ENE,70,8.0,12.0,96,0.00,,,0.41,,2013-06-11 00:22:00,
2013-06-10 20:32:00,64.0,63.0,29.92,East,79,6.0,13.0,96,0.00,,,0.41,,2013-06-11 00:32:00,
2013-06-10 20:42:00,64.0,63.0,29.92,East,79,6.0,13.0,96,0.00,,,0.41,,2013-06-11 00:42:00,
2013-06-10 20:52:00,64.0,63.0,29.92,ENE,74,5.0,12.0,96,0.00,,,0.41,,2013-06-11 00:52:00,
2013-06-10 21:02:00,64.0,63.0,29.92,ESE,113,3.0,12.0,96,0.00,,,0.41,,2013-06-11 01:02:00,
2013-06-10 21:12:00,64.0,63.0,29.92,ESE,113,3.0,12.0,96,0.00,,,0.41,,2013-06-11 01:12:00,
2013-06-10 21:22:00,63.0,62.0,29.92,ENE,63,3.0,9.0,97,0.00,,,0.41,,2013-06-11 01:22:00,
2013-06-10 21:33:00,63.0,62.0,29.92,ENE,71,8.0,13.0,97,0.00,,,0.41,,2013-06-11 01:33:00,
2013-06-10 21:42:00,63.0,62.0,29.92,ENE,71,8.0,13.0,97,0.00,,,0.41,,2013-06-11 01:42:00,
2013-06-10 21:53:00,63.0,62.0,29.92,ENE,63,3.0,8.0,97,0.00,,,0.41,,2013-06-11 01:53:00,
2013-06-10 22:02:00,63.0,62.0,29.92,ENE,75,7.0,10.0,97,0.00,,,0.41,,2013-06-11 02:02:00,
2013-06-10 22:12:00,63.0,62.0,29.92,ENE,75,7.0,10.0,97,0.00,,,0.41,,2013-06-11 02:12:00,
2013-06-10 22:22:00,63.0,62.0,29.92,ENE,76,2.0,9.0,97,0.00,,,0.41,,2013-06-11 02:22:00,
2013-06-10 22:32:00,63.0,62.0,29.92,ENE,67,3.0,6.0,97,0.00,,,0.41,,2013-06-11 02:32:00,
2013-06-10 22:42:00,63.0,62.0,29.92,NE,47,3.0,7.0,97,0.00,,,0.41,,2013-06-11 02:42:00,
2013-06-10 22:52:00,63.0,62.0,29.92,NE,47,3.0,7.0,97,0.00,,,0.41,,2013-06-11 02:52:00,
2013-06-10 23:03:00,63.0,62.0,29.92,NE,45,0.0,6.0,97,0.00,,,0.41,,2013-06-11 03:03:00,
2013-06-10 23:13:00,63.0,62.0,29.92,NE,45,0.0,6.0,97,0.00,,,0.41,,2013-06-11 03:13:00,
2013-06-10 23:22:00,63.0,63.0,29.92,ENE,76,2.0,8.0,100,0.00,,,0.41,,2013-06-11 03:22:00,
2013-06-10 23:32:00,63.0,63.0,29.92,NE,46,2.0,8.0,100,0.00,,,0.41,,2013-06-11 03:32:00,
2013-06-10 23:43:00,62.0,62.0,29.92,NE,48,3.0,8.0,100,0.03,,,0.44,,2013-06-11 03:43:00,
2013-06-10 23:53:00,62.0,62.0,29.92,NE,48,3.0,8.0,100,0.03,,,0.44,,2013-06-11 03:53:00,